Weather in Kolpakovka

Russia / Sverdlovsk Oblast     57°27′23″N   58°48′47″E
temp.,
°C
wind,
m/s
gust,
m/s
humid.,
%
clouds,
%
prec.,
mm/h
press.,
hPa
HPBL,
m
22 january, sat
sat2223:00−13sw289796 0.1 1025210
02:00−16ssw119982 0.0 102623
05:00−18ssw1110087 0.1 102810
08:00−18ssw1110090 0.0 102810
11:00−13ssw139532 0.0 102977
14:00−8sw258887 0.0 1029295
17:00−13ssw119756 0.0 10309
20:00−16s119967 0.0 10329
23 january, sun
sun2323:00−18s119962 0.0 10339
02:00−18sse119958 0.0 103410
05:00−18s119973 0.0 10359
08:00−17sse119999 0.0 10359
11:00−11ssw1193100 0.0 103655
14:00−7s1287100 0.0 1035155
17:00−9sse1197100 0.0 103710
20:00−12s1198100 0.0 103810
24 january, mon
mon2423:00−11s1197100 0.0 103810
02:00−11ssw1197100 0.0 103913
05:00−10sw1197100 0.0 103918
08:00−11ssw1197100 0.0 103917
11:00−8sw1491100 0.0 1039128
14:00−6wsw2587100 0.0 1038294
17:00−7wsw2696100 0.2 1038286
20:00−7wsw2696100 0.6 1037315
25 january, tue
tue2523:00−7wsw279698 1.8 1036399
02:00−10wsw279892 0.2 1036173
05:00−12wsw279897 0.3 1035150
08:00−14wsw279899 0.1 1035148
11:00−14w2798100 0.1 1035179
14:00−10w3690100 0.0 1033376
17:00−10wsw2694100 0.0 1033260
20:00−11wsw3896100 0.0 1032254
26 january, wed
wed2623:00−12wsw2798100 0.0 1032191
02:00−17sw11100100 0.0 103312
05:00−18wsw1199100 0.0 103210
08:00−20sw1110047 0.0 10329
11:00−15sw13916 0.0 103291
14:00−10wsw248065 0.0 1030249
17:00−13sw119698 0.0 10319
20:00−17ssw1198100 0.0 10329